DELTA 1 DEB, 10715

Orbit data source: Space-Track

DELTA 1 DEB, 10715 is space debris in LEO originally from a launch on Thu, 29 Jul 1976 UTC launched from the Air Force Western Test Range (AFWTR). Debris objects in space refer to the collection of defunct objects orbiting the Earth. Examples of debris include non-operational satellites, rocket bodies, and fragments generated from explosions, collisions, or faulty payload assembly.

Loading next visibility...
Identifier
10715, 1976-077AL
Orbit
LEO
Country
Flag of USUS
Related business
Manufacturer
Unknown
Mission
Spacecraft
Bus & Motor
Unknown
Mass
Unknown
Launch date (UTC)
1976-07-29 (49 years ago)
Launch vehicle
Unknown
Launch site
Air Force Western Test Range (AFWTR)
Object type
Payload
Rocket body
Debris
Shape & HBR
Unknown shape, 0.1 m
Radar Cross Section
Medium (>0.1 m² and <1 m²)

Expand to show TLE details & history
Last TLE update: 20 hours ago

TLE from 20 hours ago
0 DELTA 1 DEB
1 10715U 76077AL  25353.24634948 -.00000222  00000-0 -27919-2 0  9997
2 10715 102.5233 128.9681 0434899 153.7385 285.2761 11.63909361101255
Epoch: 2025-12-19T05:54Z
TLE epoch observation values (Epoch: 2025-12-19T05:54:44.595Z)
Latitude
69.9683°
Longitude
-85.13262°
Altitude
1,778.966 km
Speed
7.032 km/s
True Right ascension
06h 06m 34s
True Declination
69° 52' 17"
Sunlit
Object was in full shadow at epoch
Visualization orbit readout
Latitude
Unknown
Longitude
Unknown
Altitude
Unknown
Speed
Unknown
Apparent Right ascension
Unknown
Apparent Declination
Unknown
Sunlit
N/A
Visualization observer readout
Local Sidereal Time
00:22:39
Azimuth
Unknown
Elevation
Unknown
Doppler factor
Unknown
Orbital elements
Apogee altitude
2,201.9 km
Perigee altitude
1,486.713 km
Semi-major axis
8,222.443 km
Eccentricity
0.04349
Inclination
102.5233°
RAAN
128.9681°
Arg. of periapsis
153.7385°
True anomaly
280.40468°
Mean anomaly
285.2761°
Eccentric anomaly
282.84669°
Mean motion
2.911 °/min
Orbital period
123.67 mins
BSTAR
-0.0027919
Loading maneuver chart data...
Computing Atmospheric mass density...
Loading historical data...
Loading historical data...
Loading historical data...
Loading historical data...
Loading historical data...
Loading historical data...
Loading historical data...

Documentation

Showing up to 5 results
|